{"data":{"norad_id":59871,"intl_designator":"2024-098P","name":"STARLINK-31937","alt_names":[],"object_type":"PAYLOAD","status":"ACTIVE","operator":null,"country":"US","launch_date":"2024-05-24","launch_site_code":"AFETR","launch_vehicle":null,"mission":null,"orbit_class":"UNKNOWN","rcs_meters":null,"size_class":null,"mass_kg":null,"dimensions":null,"purposes":["comms"],"wikipedia_slug":null,"has_3d_model":false,"image_url":null,"decayed_at":null,"tle_current":{"epoch":"2026-09-21T08:56:15.072288Z","epoch_age_seconds":99094,"freshness":"FRESH","line1":"1 59871U 24098P   26264.37239667  .00000341  00000+0  21913-4 0  9993","line2":"2 59871  43.0000 245.9310 0000898 282.8148  77.2604 15.27576366131853","mean_motion":15.27576366,"eccentricity":8.98e-5,"inclination_deg":43,"raan_deg":245.931,"arg_perigee_deg":282.8148,"mean_anomaly_deg":77.2604,"bstar":2.1913e-5,"rev_number":13185,"period_min":94.266972967818,"perigee_km":482.44384207596,"apogee_km":483.67611305313,"semimajor_km":6861.1969775645,"source":"CELESTRAK","updated_at":"2026-09-22T09:00:49.103210Z"}}}